N75RA KPDK-KTVI

Flight info

Callsign N75RA
Flight time N/A
Altitude 28000
Route SOTWO/N0485F270 PRATZ
Aircraft C700/M-SBDGHM1RWXY/LB2

Departure

Time 2026-04-14 02:07
Airport DeKalb Peachtree Airport (KPDK)

Arrival

Time N/A
Airport Thomasville Regional Airport (KTVI)
Time Latitude Longitude Altitude Speed Heading
2026-04-14 02:01 33.88072 -84.30192 992 ft 0 kts 277°
2026-04-14 02:04 33.88071 -84.30194 992 ft 1 kts 265°
2026-04-14 02:04 33.88055 -84.30202 997 ft 3 kts 169°
2026-04-14 02:04 33.88014 -84.30205 992 ft 7 kts 171°
2026-04-14 02:05 33.87999 -84.30159 995 ft 7 kts 68°
2026-04-14 02:05 33.88050 -84.30130 998 ft 12 kts 21°
2026-04-14 02:05 33.88160 -84.30081 992 ft 20 kts 20°
2026-04-14 02:05 33.88298 -84.30019 992 ft 23 kts 21°
2026-04-14 02:06 33.88436 -84.29956 992 ft 17 kts 24°
2026-04-14 02:06 33.88450 -84.29881 994 ft 3 kts 112°
2026-04-14 02:06 33.88438 -84.29842 992 ft 7 kts 109°
2026-04-14 02:06 33.88411 -84.29754 992 ft 15 kts 111°
2026-04-14 02:07 33.88293 -84.29757 992 ft 37 kts 200°
2026-04-14 02:07 33.87713 -84.30019 1031 ft 136 kts 201°
2026-04-14 02:07 33.86726 -84.30509 1929 ft 158 kts 211°
2026-04-14 02:07 33.86082 -84.31633 2945 ft 186 kts 252°
2026-04-14 02:08 33.85939 -84.33325 3056 ft 213 kts 263°
2026-04-14 02:08 33.85883 -84.34991 3643 ft 192 kts 265°
2026-04-14 02:08 33.85607 -84.36628 4283 ft 206 kts 238°
2026-04-14 02:08 33.84551 -84.37705 4924 ft 207 kts 207°
2026-04-14 02:09 33.83165 -84.38420 5027 ft 222 kts 195°
2026-04-14 02:09 33.81679 -84.38647 5020 ft 211 kts 184°
2026-04-14 02:09 33.80251 -84.38770 5015 ft 202 kts 185°
2026-04-14 02:09 33.78827 -84.38900 5008 ft 208 kts 185°
2026-04-14 02:10 33.77379 -84.39020 5019 ft 208 kts 184°
2026-04-14 02:10 33.75944 -84.39130 5123 ft 201 kts 184°
2026-04-14 02:10 33.74555 -84.39227 5494 ft 207 kts 185°
2026-04-14 02:10 33.73083 -84.39331 5865 ft 213 kts 185°
2026-04-14 02:11 33.71569 -84.39430 6009 ft 224 kts 185°
2026-04-14 02:11 33.70046 -84.39530 6026 ft 220 kts 184°
2026-04-14 02:11 33.68546 -84.39612 6015 ft 212 kts 184°
2026-04-14 02:11 33.67064 -84.39701 6023 ft 213 kts 184°
2026-04-14 02:12 33.65585 -84.39786 6011 ft 212 kts 184°
2026-04-14 02:12 33.64096 -84.39881 6016 ft 216 kts 185°
2026-04-14 02:12 33.62591 -84.39959 6017 ft 217 kts 183°
2026-04-14 02:12 33.61037 -84.40004 6019 ft 234 kts 183°
2026-04-14 02:13 33.59296 -84.40070 6094 ft 270 kts 183°
2026-04-14 02:13 33.57412 -84.40142 7739 ft 271 kts 184°
2026-04-14 02:13 33.55511 -84.40242 9587 ft 277 kts 184°
2026-04-14 02:13 33.53523 -84.40322 10980 ft 298 kts 184°
2026-04-14 02:14 33.51352 -84.40401 12105 ft 326 kts 184°
2026-04-14 02:14 33.48981 -84.40496 13257 ft 354 kts 184°
2026-04-14 02:14 33.46457 -84.40602 14581 ft 368 kts 184°
2026-04-14 02:14 33.43878 -84.40707 16082 ft 375 kts 184°
2026-04-14 02:15 33.41242 -84.40814 17484 ft 383 kts 185°
2026-04-14 02:15 33.38549 -84.40925 18823 ft 392 kts 185°
2026-04-14 02:15 33.35799 -84.41039 20010 ft 399 kts 185°
2026-04-14 02:15 33.33000 -84.41153 21185 ft 406 kts 185°
2026-04-14 02:16 33.30146 -84.41269 22328 ft 413 kts 185°
2026-04-14 02:16 33.27244 -84.41386 23403 ft 420 kts 185°
2026-04-14 02:16 33.24330 -84.41506 24229 ft 432 kts 185°
2026-04-14 02:16 33.21232 -84.41640 24299 ft 456 kts 185°
2026-04-14 02:17 33.18050 -84.41767 24305 ft 457 kts 185°
2026-04-14 02:17 33.14865 -84.41883 24302 ft 457 kts 185°
2026-04-14 02:17 33.11678 -84.42016 24300 ft 460 kts 185°
2026-04-14 02:17 33.08477 -84.42155 24300 ft 459 kts 185°
2026-04-14 02:18 33.05284 -84.42272 24303 ft 458 kts 184°
2026-04-14 02:18 33.02104 -84.41967 24295 ft 461 kts 175°
2026-04-14 02:18 32.98917 -84.41452 24298 ft 462 kts 175°
2026-04-14 02:18 32.95717 -84.41001 24302 ft 463 kts 176°
2026-04-14 02:19 32.92513 -84.40547 24302 ft 463 kts 175°
2026-04-14 02:19 32.89322 -84.40055 24301 ft 461 kts 175°
2026-04-14 02:19 32.86145 -84.39565 24300 ft 460 kts 175°
2026-04-14 02:19 32.82961 -84.39101 24296 ft 462 kts 176°
2026-04-14 02:20 32.79760 -84.38636 24291 ft 463 kts 175°
2026-04-14 02:20 32.76558 -84.38154 24288 ft 463 kts 175°
2026-04-14 02:20 32.73362 -84.37672 24282 ft 462 kts 175°
2026-04-14 02:20 32.70210 -84.37208 24276 ft 462 kts 175°
2026-04-14 02:21 32.67022 -84.36739 24274 ft 461 kts 175°
2026-04-14 02:21 32.63844 -84.36221 24266 ft 461 kts 172°
2026-04-14 02:21 32.60710 -84.35317 24257 ft 463 kts 168°
2026-04-14 02:21 32.57565 -84.34418 24259 ft 466 kts 169°
2026-04-14 02:22 32.54408 -84.33572 24258 ft 464 kts 169°
2026-04-14 02:22 32.51262 -84.32695 24255 ft 463 kts 169°
2026-04-14 02:22 32.49194 -84.32097 24255 ft 463 kts 168°
2026-04-14 02:22 32.45037 -84.30912 24255 ft 465 kts 169°
2026-04-14 02:23 32.41880 -84.30039 24253 ft 465 kts 169°
2026-04-14 02:23 32.38736 -84.29162 24252 ft 464 kts 169°
2026-04-14 02:23 32.35595 -84.28273 24253 ft 462 kts 169°
2026-04-14 02:23 32.32459 -84.27390 24252 ft 463 kts 169°
2026-04-14 02:24 32.30378 -84.26811 24253 ft 464 kts 169°
2026-04-14 02:24 32.27226 -84.25932 24253 ft 466 kts 169°
2026-04-14 02:24 32.24077 -84.25048 24250 ft 465 kts 169°
2026-04-14 02:24 32.20933 -84.24168 24253 ft 463 kts 169°
2026-04-14 02:25 32.17798 -84.23293 24248 ft 463 kts 169°
2026-04-14 02:25 32.14649 -84.22415 24249 ft 466 kts 169°
2026-04-14 02:25 32.11496 -84.21534 24249 ft 465 kts 169°
2026-04-14 02:25 32.08357 -84.20658 24248 ft 462 kts 169°
2026-04-14 02:26 32.05221 -84.19784 24246 ft 464 kts 169°
2026-04-14 02:26 32.02047 -84.18905 23751 ft 467 kts 169°
2026-04-14 02:26 31.98964 -84.18044 23123 ft 455 kts 169°
2026-04-14 02:26 31.95905 -84.17190 22527 ft 450 kts 169°
2026-04-14 02:27 31.92857 -84.16346 21934 ft 449 kts 169°
2026-04-14 02:27 31.89823 -84.15507 21349 ft 446 kts 169°
2026-04-14 02:27 31.86816 -84.14670 20740 ft 442 kts 169°
2026-04-14 02:27 31.83835 -84.13841 20146 ft 438 kts 168°
2026-04-14 02:28 31.80877 -84.13023 19572 ft 434 kts 169°
2026-04-14 02:28 31.77945 -84.12213 18999 ft 431 kts 169°
2026-04-14 02:28 31.75040 -84.11409 18418 ft 427 kts 169°
2026-04-14 02:28 31.72158 -84.10612 17775 ft 424 kts 168°
2026-04-14 02:29 31.69305 -84.09823 17147 ft 419 kts 168°
2026-04-14 02:29 31.66476 -84.09040 16535 ft 416 kts 168°
2026-04-14 02:29 31.63690 -84.08216 16103 ft 409 kts 166°
2026-04-14 02:29 31.60982 -84.07150 15561 ft 411 kts 161°
2026-04-14 02:30 31.58357 -84.06004 14991 ft 391 kts 162°
2026-04-14 02:30 31.55844 -84.05054 14450 ft 368 kts 165°
2026-04-14 02:30 31.53450 -84.04224 13923 ft 350 kts 164°
2026-04-14 02:30 31.51182 -84.03371 13433 ft 334 kts 163°
2026-04-14 02:31 31.49026 -84.02527 12973 ft 319 kts 163°
2026-04-14 02:31 31.46953 -84.01738 12522 ft 307 kts 163°
2026-04-14 02:31 31.44946 -84.00993 12108 ft 299 kts 163°
2026-04-14 02:31 31.43000 -84.00261 11694 ft 296 kts 163°
2026-04-14 02:32 31.41035 -83.99520 11269 ft 295 kts 163°
2026-04-14 02:32 31.39081 -83.98780 10850 ft 294 kts 163°
2026-04-14 02:32 31.37141 -83.98049 10436 ft 291 kts 163°
2026-04-14 02:32 31.35211 -83.97323 10005 ft 289 kts 162°
2026-04-14 02:33 31.33307 -83.96606 9581 ft 286 kts 162°
2026-04-14 02:33 31.31426 -83.95899 9178 ft 283 kts 162°
2026-04-14 02:33 31.29584 -83.95205 8787 ft 281 kts 162°
2026-04-14 02:34 31.25867 -83.93809 7990 ft 280 kts 162°
2026-04-14 02:34 31.24020 -83.93115 7594 ft 277 kts 162°